Regional Weather Roundup
Issued by NWS Columbia, SC

Home | Current Version | Previous Version | Text Only | Print | Product List | Glossary On
Versions: 1 2 3 4 5 6 7 8 9 10 11 12 13 14 15 16 17 18 19 20 21 22 23 24 25 26 27 28
000
ASUS42 KCAE 062110
RWRCAE
REGIONAL WEATHER ROUNDUP
NATIONAL WEATHER SERVICE COLUMBIA SC
500 PM EDT FRI MAY 06 2016

NOTE: "FAIR" INDICATES FEW OR NO CLOUDS BELOW 12,000 FEET WITH NO
SIGNIFICANT WEATHER AND/OR OBSTRUCTIONS TO VISIBILITY.

NOT ALL STATIONS ARE QUALITY CONTROLLED BY THE NATIONAL
WEATHER SERVICE. USE DATA WITH CAUTION...ESPECIALLY
DEWPOINT OBSERVATIONS.

SCZ001>056-GAZ040-063>065-077-062200-
...UPSTATE SOUTH CAROLINA...

CITY           SKY/WX    TMP DP  RH WIND       PRES   REMARKS
ANDERSON       PTSUNNY   69  36  29 N8        29.83F
LIBERTY        PTCLDY    71  38  31 N13G20    29.83S
SPARTANBURG    MOSUNNY   66  37  34 N7        29.82S
CLEMSON        PTSUNNY   72  39  30 N9G18     29.85S
GREENVILLE     MOSUNNY   70  38  31 N13       29.84S
GREENWOOD      MOSUNNY   70  41  34 CALM      29.83F
GREER          PTSUNNY   70  42  36 N14G22    29.82S
ROCK HILL      MOSUNNY   65  42  43 N14G20    29.81S
CHESTER        MOCLDY    66  37  34 N10G22    29.81F
LAURENS        CLEAR     70  41  35 NW8       29.81F


...CENTRAL SOUTH CAROLINA...

CITY           SKY/WX    TMP DP  RH WIND       PRES   REMARKS
COLUMBIA APT   CLOUDY    71  48  43 NW14      29.80S
COLUMBIA OWENS CLOUDY    70  45  40 VRB7G17   29.81S
MCENTIRE ANGB  LGT RAIN  66  47  50 NW18G25   29.81R
ORANGEBURG     LGT RAIN  67  48  50 NW10      29.81S
SUMTER SHAW    MOSUNNY   67  47  48 W17G23    29.78R
NEWBERRY       PTCLDY    68  48  49 N7        29.84S
AIKEN          MOCLDY    70  41  35 NW14      29.85S
BARNWELL       DRIZZLE   73  46  38 S5        29.82S
MANNING        MOCLDY    70  45  40 NW9       29.78S
LANCASTER      PTCLDY    68  43  40 NW13G21   29.80S
WINNSBORO      LGT RAIN  59  52  77 CALM      29.81F


...EASTERN AND COASTAL SOUTH CAROLINA...

CITY           SKY/WX    TMP DP  RH WIND       PRES   REMARKS
MYRTLE BEACH   PTSUNNY   70  46  43 N8        29.79S
N MYRTLE BCH   CLOUDY    69  49  48 VRB3      29.76F
CONWAY         MOCLDY    68  50  52 NW3       29.78S HAZE
MARION         MOCLDY    66  46  48 NW5       29.77S
HARTSVILLE     FAIR      70  45  40 W5        29.77F
FLORENCE       PTSUNNY   71  46  40 NW9       29.77F
DARLINGTON     MOSUNNY   69  45  41 NW15      29.78S
CHARLESTON APT MOSUNNY   73  46  38 W14       29.79F
MOUNT PLEASANT FAIR      72  48  43 NW9       29.79F
WALTERBORO     MOCLDY    72  43  35 W8        29.81S
BEAUFORT       PTSUNNY   70  47  43 W6        29.82F


...EASTERN GEORGIA...

CITY           SKY/WX    TMP DP  RH WIND       PRES   REMARKS
AUGUSTA BUSH F CLOUDY    72  43  35 W12       29.81F
AUGUSTA DANIEL PTSUNNY   73  42  32 W9        29.83S
THOMSON        MOSUNNY   71  48  44 W8        29.88S
WASHINGTON     FAIR      66  41  39 CALM      29.84F
CLAXTON        FAIR      71  49  45 W5        29.84S
SYLVANIA       MOCLDY    71  49  46 CALM      29.83F
STATESBORO     SUNNY     75  50  41 W8G17     29.83F
SAVANNAH       PTSUNNY   72  43  35 NW9G23    29.83F


...SOUTHERN NORTH CAROLINA...

CITY           SKY/WX    TMP DP  RH WIND       PRES   REMARKS
CHARLOTTE      PTSUNNY   67  40  37 NW12      29.80F
MONROE           N/A     67  42  40 NW9       29.78S
WADESBORO      CLOUDY    68  38  33 NW9       29.77S
ROCKINGHAM     HVY RAIN  63  49  60 NW9G17    29.78R
RUTHERFORDTON  SUNNY     66  39  36 NW13G22   29.84S
ASHEVILLE      MOSUNNY   61  38  42 NW16G28   29.87F

$$




USA.gov is the U.S. government's official web portal to all federal, state and local government web resources and services.